[ ตารางข้อมูล ] [ Min-Max ] [ วันนี้4 ] [ วันนี้2 ] [ เทียบ3วัน A ] [ เทียบ4วัน B ]   

วันนี้2   [ ◀ ช่วงเก่ากว่า ] [ ช่วงที่ 178 ] [ ช่วงใหม่กว่า ▶ ] [ ล่าสุด ]    [ 3 ชั่วโมง ] [ 6 ชั่วโมง ] [ 12 ชั่วโมง ] [ 24 ชั่วโมง ]   วันนี้2

อุณภูมิตู้ Knockdown4529  ราย 6 ชั่วโมง  ที่วัดได้ ในช่วงวันเวลา 19/03/2026 (19:00) ถึง 20/03/2026 (01:00) 
ความชื้นในตู้ Knockdown4529  ราย 6 ชั่วโมง  ที่วัดได้ ในช่วงวันเวลา 19/03/2026 (19:00) ถึง 20/03/2026 (01:00) 

 
DS18B20SHTC3 
IDDate d/m/Y & Timedata1
สูง
data2
ต่ำ
data3
นอก
temp
pcb
hum
pcb
Time
 4080  20/03/2026 00:58:12  28.8  28.8  27.1  28.7  73.2  00:58 
 4079  20/03/2026 00:53:30  28.8  28.9  27.1  28.8  73.2  00:53 
 4078  20/03/2026 00:48:48  28.8  28.8  27.1  28.5  73.0  00:48 
 4077  20/03/2026 00:44:06  28.8  28.8  27.2  28.6  73.1  00:44 
 4076  20/03/2026 00:39:24  28.8  28.9  27.2  28.5  73.1  00:39 
 4075  20/03/2026 00:34:42  28.8  28.9  27.3  28.7  73.1  00:34 
 4074  20/03/2026 00:30:02  28.8  28.9  27.3  28.6  73.1  00:30 
 4073  20/03/2026 00:25:19  28.8  28.9  27.4  28.7  73.1  00:25 
 4072  20/03/2026 00:20:37  28.8  28.9  27.4  28.8  73.2  00:20 
 4071  20/03/2026 00:15:55  28.8  28.9  27.4  28.6  73.2  00:15 
 4070  20/03/2026 00:11:11  28.8  28.9  27.4  28.7  73.0  00:11 
 4069  20/03/2026 00:06:29  28.8  28.9  27.4  28.6  72.9  00:06 
 4068  20/03/2026 00:01:48  28.8  28.9  27.4  28.7  73.0  00:01 
 4067  19/03/2026 23:57:07  28.8  28.9  27.4  28.6  72.9  23:57 
 4066  19/03/2026 23:52:25  28.8  28.9  27.4  28.6  73.0  23:52 
 4065  19/03/2026 23:47:43  28.8  28.9  27.3  28.6  72.9  23:47 
 4064  19/03/2026 23:43:01  28.8  28.9  27.4  28.6  72.9  23:43 
 4063  19/03/2026 23:38:19  28.8  28.9  27.4  28.6  72.7  23:38 
 4062  19/03/2026 23:33:37  28.8  28.9  27.4  28.6  73.0  23:33 
 4061  19/03/2026 23:28:55  28.8  28.9  27.4  28.6  72.7  23:28 
 4060  19/03/2026 23:24:14  28.8  28.9  27.4  28.7  72.6  23:24 
 4059  19/03/2026 23:19:31  28.8  28.9  27.4  28.8  72.6  23:19 
 4058  19/03/2026 23:14:49  28.8  28.9  27.4  28.8  72.7  23:14 
 4057  19/03/2026 23:10:08  28.8  28.9  27.4  28.9  72.7  23:10 

Data every 5 minute.


ใช้เวลาประมวลผล 0.00525 วินาที